Location: Czepino
(53.2873°N, 14.5161°E)
Time: 18:45:49
(UTC+00:00)

Daily predictions for brighter satellites

Satellite Brightness Start Highest point End
(mag) Time Altitude Azimuth Time Altitude Azimuth Time Altitude Azimuth
Cosmos 1151 Rocket 4.1 19:22:38 10° SE 19:26:18 27° E 19:30:02 10° NNE
USA 290 2.2 19:23:06 10° NNW 19:26:23 87° ENE 19:29:37 10° SSE
Cosmos 1602 4.2 19:23:06 10° N 19:26:50 45° ENE 19:30:33 10° SSE
Meteor 1-25 Rocket 4.4 19:21:28 10° N 19:27:19 74° ENE 19:33:10 10° SSE
Cosmos 2278 Rocket 4.0 19:25:24 10° ESE 19:27:40 13° E 19:29:58 10° ENE
Terra 3.3 19:24:26 10° ESE 19:28:11 24° ENE 19:31:58 10° N
USA 307 3.0 19:25:17 10° W 19:29:35 82° N 19:33:52 10° E
CREW DRAGON DEMO-1 DEB 2.5 19:28:04 10° W 19:30:42 60° S 19:33:19 10° E
Ariane Rocket 3.8 19:26:02 10° S 19:30:58 53° W 19:35:58 10° NNW
CZ-2C R/B 4.2 19:28:51 10° NNE 19:33:02 38° E 19:37:15 10° SSE
Cosmos 2263 Rocket 3.6 19:29:13 10° WSW 19:34:32 44° NW 19:39:54 10° NNE
Cosmos 1606 3.1 19:33:10 10° SSW 19:36:56 67° WNW 19:40:44 10° N
Cosmos 1844 Rocket 2.7 19:33:40 10° SSW 19:39:10 66° ESE 19:44:44 10° NE
Cosmos 1805 Rocket 4.1 19:36:55 10° NNW 19:41:13 61° W 19:45:29 10° S
SL-4 R/B 4.1 19:38:06 10° W 19:41:17 20° SW 19:44:37 10° S
SPOT 1/Viking Rocket 3.6 19:36:56 10° SSE 19:42:07 72° ENE 19:47:18 10° NNW
USA 308 3.0 19:38:46 10° W 19:43:04 85° N 19:47:23 10° E
MetOp-B 4.2 19:38:03 10° SSE 19:43:25 88° ENE 19:48:49 10° NNW
X-37B 2.4 19:43:40 10° SW 19:45:57 18° S 19:47:53 12° SE
ARIANE 5 R/B 2.9 19:43:14 10° SE 19:47:28 54° ENE 19:51:43 10° N
Cosmos 1354 Rocket 4.4 19:42:55 10° S 19:47:50 43° ESE 19:52:47 10° NE
Cosmos 1633 Rocket 3.1 19:45:20 10° N 19:49:45 69° ENE 19:54:08 10° SSE
Cosmos 1745 Rocket 4.3 19:43:52 10° NNW 19:50:04 68° W 19:56:10 10° S
NOSS 3-4 (A) 4.2 19:45:07 10° NW 19:51:41 57° NNE 19:59:01 10° ESE
NOSS 3-4 (C) 4.2 19:45:13 10° NW 19:51:47 57° NNE 19:59:07 10° ESE
Cosmos 1709 Rocket 4.0 19:46:48 10° N 19:52:59 82° E 19:59:06 10° SSE
SPOT 3 Rocket 4.0 19:50:38 10° S 19:55:44 61° WSW 20:00:52 10° NNW
Cosmos 1437 3.8 19:54:17 14° SE 19:56:01 23° E 19:58:22 10° NE
Landsat 7 4.2 19:53:47 10° S 19:58:31 64° WSW 20:03:16 10° NNW
Cosmos 1470 Rocket 3.9 19:54:28 10° N 19:58:53 53° ENE 20:02:47 13° SSE
Cosmos 1812 4.0 19:56:30 13° SE 19:59:10 25° E 20:02:22 10° NNE
Cosmos 1844 3.7 19:53:42 10° SSW 19:59:24 75° ESE 20:05:05 10° NE
ATLAS 5 CENTAUR R/B 2.6 19:54:25 10° NW 19:59:45 59° SW 20:05:41 12° SSE
Cosmos 968 Rocket 3.8 19:54:55 10° SSW 20:00:10 74° WNW 20:05:25 10° NNE
Akebono 4.0 20:00:32 10° NNW 20:03:23 76° ENE 20:04:51 18° SSE
NOSS 3-3 (A) 4.5 19:59:03 10° S 20:04:17 35° ESE 20:10:10 10° NE
NOSS 3-3 (C) 4.5 19:59:10 10° S 20:04:24 35° ESE 20:10:16 10° NE
Cosmos 1328 Rocket 3.9 20:00:11 10° SSE 20:04:27 49° E 20:08:45 10° NNE
ATLAS 2AS CENTAUR R/B 3.6 19:57:43 10° NW 20:05:09 51° NNE 20:12:03 10° E
Cosmos 1486 Rocket 4.2 20:02:20 10° SSW 20:07:41 78° WNW 20:13:04 10° NNE
Cosmos 1833 Rocket 2.8 20:03:32 10° NNW 20:09:12 69° NE 20:14:00 15° SE
Meteor 1-26 Rocket 4.2 20:04:38 10° S 20:10:18 72° E 20:15:49 10° NNE
Meteor 1-14 Rocket 4.3 20:04:53 10° NNW 20:10:51 80° ENE 20:16:14 12° SSE
CARTOSAT-1 3.5 20:07:01 12° SSE 20:10:57 81° ENE 20:15:17 10° NNW
Cosmos 2315 Rocket 4.1 20:06:39 10° S 20:12:59 74° E 20:19:23 10° NNE
CRYOSAT 2 4.4 20:08:26 10° S 20:13:20 84° W 20:18:17 10° N
Cosmos 1933 Rocket 3.9 20:09:12 10° N 20:13:27 49° ENE 20:16:40 16° SE
S3M 4.4 20:07:29 10° SSW 20:13:50 68° WNW 20:20:11 10° N
BREEZE-M R/B 2.9 20:12:28 10° SW 20:14:31 23° SSE 20:15:12 21° SE
Cosmos 1666 3.3 20:11:18 10° N 20:14:53 41° ENE 20:17:20 18° SE
Cosmos 1666 Rocket 4.1 20:10:57 10° NNW 20:15:19 59° W 20:19:37 10° S
USA 215 3.6 20:11:15 10° E 20:17:44 67° N 20:24:12 10° WNW
Cosmos 1538 Rocket 4.2 20:13:59 10° NNW 20:19:23 67° ENE 20:23:35 17° SE
Cosmos 1933 4.1 20:20:07 10° SSW 20:24:05 52° WNW 20:28:03 10° N
USA 305 2.8 20:20:52 10° WNW 20:25:09 77° SSW 20:28:38 15° ESE
USA 245 3.4 20:23:41 14° SSW 20:25:21 31° W 20:27:26 10° NNW
Iridium 4 Rocket 4.1 20:22:03 15° SSE 20:26:42 53° E 20:32:26 10° N
Cosmos 1242 Rocket 3.3 20:26:07 10° SSW 20:29:38 51° WNW 20:33:07 10° N
Cosmos 158 Rocket 4.2 20:27:24 10° NNW 20:32:13 54° ENE 20:35:40 18° SE
Cosmos 773 Rocket 4.4 20:27:28 10° NNW 20:32:43 61° WSW 20:37:01 15° S
BREEZE M DEB (TANK) 2.4 20:29:23 10° W 20:33:18 34° SSW 20:34:07 26° SSE
Resurs 01 Rocket 3.7 20:32:00 10° SSW 20:35:36 24° W 20:39:14 10° NW
Cosmos 1680 Rocket 4.5 20:32:09 10° NNW 20:37:10 39° NE 20:41:08 15° ESE
Spot 2 Rocket 4.0 20:34:12 11° S 20:38:54 54° W 20:43:52 10° NNW
COSMOS 2406 3.3 20:33:53 10° NNW 20:39:35 79° WSW 20:43:43 19° SSE
SJ 16-02 2.2 20:38:20 21° SSE 20:40:24 31° ESE 20:44:20 10° NE
Cosmos 2228 Rocket 4.0 20:40:06 21° SE 20:42:17 33° E 20:46:17 10° NNE
Cosmos 2082 Rocket 2.4 20:36:49 10° NNW 20:42:27 67° NE 20:46:28 19° SE
USA 306 2.9 20:40:01 10° WNW 20:44:15 67° SSW 20:47:01 21° ESE
Cosmos 1500 3.8 20:40:40 10° NNW 20:44:21 50° W 20:47:10 16° SSW
CZ-4C R/B 3.1 20:38:09 10° NW 20:45:07 68° SW 20:51:18 19° SSE
Meteor 2-6 Rocket 4.2 20:41:14 15° S 20:45:43 64° E 20:51:12 10° NNE
Cosmos 1782 3.6 20:44:15 10° SSW 20:48:09 51° WNW 20:52:05 10° N
Gbstr 26 Del rocket 4.2 20:40:52 10° W 20:48:37 80° S 20:55:06 10° E
deb Kosmos-1763 4.0 20:50:04 10° NNW 20:53:37 75° WSW 20:55:19 28° SSE
ERS-1 Rocket 3.4 20:50:52 16° S 20:54:49 58° WSW 20:59:48 10° NNW
H-2A R/B 3.5 20:51:08 10° NNE 20:55:19 60° ESE 20:57:49 23° S
SL-24 DEB 4.3 20:53:26 23° SSE 20:56:13 66° E 21:00:47 10° N
SPOT 5 3.4 20:52:52 16° S 20:56:49 58° W 21:02:03 10° NNW
Meteor 1-11 Rocket 3.9 20:52:42 10° NNW 20:58:44 78° ENE 21:02:44 22° SSE
ERBS 3.4 20:57:30 10° WNW 21:00:40 43° N 21:03:52 10° E
SOZ 4.2 20:59:17 10° WSW 21:01:30 63° S 21:03:12 19° E
Cosmos 1271 Rocket 2.9 21:00:22 26° SSE 21:02:23 58° E 21:06:21 10° NNE
Cosmos 1151 Rocket 4.3 20:59:36 10° SW 21:03:43 40° WNW 21:07:53 10° N
Cosmos 1777 Rocket 3.9 20:58:50 10° SSW 21:04:02 82° ESE 21:09:17 10° NNE
CREW DRAGON DEMO-1 DEB 3.3 21:02:23 10° W 21:04:38 35° SSW 21:04:38 35° SSW
Terra 2.1 21:02:23 20° S 21:05:35 63° WSW 21:10:20 10° NNW
USA 307 3.1 21:05:19 10° WNW 21:09:30 55° SSW 21:11:25 29° SE
Cosmos 2278 Rocket 2.2 21:05:44 13° SSW 21:10:40 64° ESE 21:16:16 10° NE
Cosmos 1340 Rocket 3.4 21:08:20 10° N 21:12:19 48° ENE 21:14:05 28° SE
Cosmos 923 Rocket 4.0 21:07:13 10° NNW 21:12:30 81° ENE 21:15:32 26° SSE
Spot 4 4.5 21:14:20 23° SE 21:17:00 47° ENE 21:21:41 10° N
Cosmos 1544 3.2 21:16:10 10° N 21:19:44 60° ENE 21:20:56 37° SE
Cosmos 1515 Rocket 4.2 21:17:35 13° SSW 21:21:21 55° WNW 21:25:42 10° N
Cosmos 1869 Rocket 3.5 21:17:27 10° NNW 21:21:49 83° WSW 21:23:54 30° S
Cosmos 1536 2.8 21:17:59 10° N 21:22:05 88° E 21:23:48 34° SSE
Cosmos 2369 Rocket 4.3 21:21:57 10° E 21:22:43 10° E 21:23:30 10° E
USA 308 3.2 21:18:48 10° WNW 21:22:57 48° SSW 21:24:23 34° SSE
Cosmos 2084 3.3 21:19:19 10° SW 21:23:29 78° SE 21:27:48 10° NE
Cosmos 1844 Rocket 4.5 21:18:30 10° WSW 21:23:30 33° NW 21:28:33 10° NNE
Meteor 1-10 Rocket 4.2 21:22:59 17° SSW 21:27:19 82° WNW 21:33:01 10° NNE
Cosmos 2154 Rocket 4.1 21:22:38 10° NNW 21:29:00 78° W 21:33:02 24° S
Cosmos 1943 Rocket 3.5 21:30:26 20° ESE 21:31:44 22° ESE 21:35:55 10° NE
Cosmos 2084 Rocket 3.9 21:29:54 10° NW 21:34:04 56° NE 21:36:50 21° ESE
Cosmos 1812 4.2 21:31:31 12° SW 21:34:48 35° WNW 21:38:23 10° N
Cosmos 1975 4.2 21:31:29 10° N 21:34:57 27° ENE 21:36:27 21° ESE
Cosmos 44 3.6 21:33:47 10° NW 21:39:18 80° NE 21:42:24 26° SE
ALOS 2 3.4 21:38:41 26° ESE 21:40:40 42° ENE 21:44:50 10° N
Cosmos 990 Rocket 4.3 21:40:01 31° SSE 21:42:06 48° ESE 21:47:09 10° NE
NOSS 3-4 (A) 4.1 21:36:04 10° NW 21:42:46 57° SW 21:47:04 26° SSE
NOSS 3-4 (C) 4.1 21:36:10 10° NW 21:42:53 57° SW 21:47:10 26° SSE
ATLAS 5 CENTAUR R/B 4.4 21:40:34 10° W 21:43:43 15° WSW 21:47:07 10° SW
Cosmos 1707 Rocket 3.7 21:42:54 36° SSE 21:44:24 56° E 21:48:44 10° NNE
Cosmos 962 Rocket 4.4 21:42:17 10° N 21:48:28 89° W 21:51:48 29° S
Cosmos 2112 Rocket 4.0 21:45:58 10° NNW 21:51:20 79° WSW 21:53:50 33° SSE
Cosmos 1833 Rocket 4.1 21:48:05 10° NW 21:52:41 26° WSW 21:55:42 17° SSW
SL-24 R/B - RUBIN 2 3.9 21:48:30 10° NW 21:54:13 82° SW 21:56:38 32° SE
NOSS 3-3 (A) 4.3 21:48:45 10° WSW 21:54:44 70° NW 22:01:43 10° NE
Cosmos 1238 Rocket 3.9 21:48:18 10° N 21:54:50 77° ENE 21:57:51 31° SSE
NOSS 3-3 (C) 4.3 21:48:52 10° WSW 21:54:51 71° NW 22:01:49 10° NE
Cosmos 1743 2.7 21:51:55 10° NNW 21:55:46 74° W 21:56:52 44° S
Nadezhda 1 Rocket 4.2 21:51:52 20° SSW 21:56:24 71° WNW 22:02:40 10° N
ATLAS 2AS CENTAUR R/B 2.8 21:49:06 10° NW 21:56:33 71° SW 22:00:31 28° SSE
SeaSat 1 4.2 21:54:52 10° ENE 21:58:01 17° ESE 21:58:33 16° ESE
USA 215 3.2 21:55:02 15° ESE 22:00:43 83° SSW 22:07:17 10° WNW
BREEZE-M DEB (TANK) 2.4 21:58:04 10° W 22:03:52 81° S 22:04:40 43° ESE
USA 305 4.0 22:01:03 10° W 22:04:41 28° SW 22:04:41 28° SW
Cosmos 2297 4.0 22:03:58 33° SSE 22:06:07 48° ESE 22:11:34 10° NE
Cosmos 2181 Rocket 4.1 22:07:22 31° SSE 22:10:23 64° E 22:16:27 10° NNE
Cosmos 1733 Rocket 3.0 22:10:20 10° NNW 22:14:40 72° W 22:16:02 42° S
SJ 16-02 2.5 22:15:15 13° SW 22:18:53 40° WNW 22:23:07 10° NNE
Cosmos 1680 Rocket 4.2 22:14:20 10° NW 22:19:22 44° WSW 22:21:27 30° SSW
Cosmos 2341 Rocket 4.3 22:13:25 10° NNW 22:19:45 65° W 22:23:08 29° SSW
Cosmos 2228 Rocket 4.4 22:17:34 17° SW 22:20:29 34° WNW 22:24:35 10° N
Cosmos 2366 rocket 3.9 22:14:51 10° N 22:21:03 90° WNW 22:24:07 32° S
Meteor 1-27 Rocket 4.4 22:18:37 18° SW 22:22:49 52° WNW 22:28:37 10° N
USA 306 4.4 22:20:21 10° W 22:23:05 22° SW 22:23:05 22° SW
Cosmos 1818 3.5 22:19:47 10° NW 22:25:17 74° SW 22:27:40 35° SSE
Cosmos 1937 Rocket 3.5 22:24:06 37° S 22:25:59 64° ESE 22:31:07 10° NNE
Thor Agena Rocket 4.3 22:21:09 10° NNE 22:26:02 38° E 22:27:48 30° SE
Cosmos 2082 Rocket 3.5 22:21:28 10° NW 22:26:07 27° WSW 22:28:19 21° SW
Cosmos 1908 Rocket 3.8 22:21:57 10° N 22:26:26 64° ENE 22:27:56 39° SE
CZ-4C R/B 4.5 22:27:39 10° WNW 22:32:57 21° WSW 22:36:28 16° SW
Gbstr 26 Del rocket 4.0 22:28:38 10° W 22:35:48 62° SSW 22:40:00 20° SE
ERBS 2.0 22:33:40 10° WNW 22:37:00 83° SSW 22:37:04 82° S
Cosmos 2218 Rocket 4.1 22:32:48 10° NNW 22:39:01 69° W 22:42:06 32° S
Cosmos 858 Rocket 4.4 22:37:14 37° SSW 22:39:20 77° ESE 22:44:35 10° NNE
USA 281 4.2 22:36:58 10° ESE 22:43:04 43° NE 22:49:12 10° NNW
Meteor 1-19 Rocket 4.1 22:40:49 35° SSW 22:43:11 88° WNW 22:48:38 10° NNE
Terra 4.4 22:43:56 10° W 22:44:19 10° W 22:44:42 10° WNW
Okean 1 3.7 22:46:34 38° SW 22:47:48 55° WNW 22:51:45 10° N
Cosmos 1461 3.8 22:53:28 36° SE 22:54:04 38° ESE 22:58:21 10° NE
Cosmos 2278 Rocket 3.7 22:50:01 10° WSW 22:55:09 34° NW 23:00:18 10° NNE
Cosmos 1782 Rocket 3.6 22:53:21 10° N 22:57:50 73° ENE 22:59:17 42° SSE
Cosmos 1703 Rocket 3.7 22:57:18 44° SSE 22:58:28 63° E 23:02:49 10° NNE
Cosmos 1862 Rocket 4.0 22:57:00 34° SW 22:58:33 52° WNW 23:02:48 10° N
Cosmos 1898 Rocket 4.0 22:57:39 24° SW 23:00:50 59° WNW 23:06:08 10° NNE
MTI 3.8 22:58:24 10° N 23:01:23 59° WNW 23:01:27 59° W
Cosmos 44 Rocket 4.2 22:59:54 10° NW 23:05:04 53° NE 23:10:08 10° ESE
Nadezhda 3 Rocket 4.2 23:02:11 31° SSE 23:05:10 63° E 23:11:18 10° NNE
Cosmos 1378 3.9 23:04:38 36° ESE 23:05:11 38° E 23:08:40 10° NNE
Cosmos 2369 Rocket 2.4 23:03:27 36° S 23:05:30 55° ESE 23:11:01 10° NE
RESURS DK-1 2.4 23:04:17 10° NNW 23:08:28 81° NE 23:09:53 41° SE
COBE Rocket 4.4 23:07:05 34° SSW 23:08:49 49° W 23:13:49 10° NNW
Meteor 1-12 Rocket 4.3 23:04:17 10° NNW 23:10:15 82° ENE 23:13:07 32° SSE
Gblst 52 Del rocket 4.5 23:03:42 10° W 23:10:17 55° SSW 23:14:41 18° SE
Cosmos 1975 3.8 23:07:49 10° NNW 23:11:26 34° W 23:12:12 31° WSW
SL-27 R/B 2.5 23:09:29 10° NNW 23:12:48 64° ENE 23:13:17 55° ESE
Cosmos 1805 4.1 23:09:26 10° N 23:13:12 43° ENE 23:14:33 31° ESE
Cosmos 2084 Rocket 4.3 23:09:34 10° WNW 23:13:20 32° WSW 23:13:20 32° WSW
SAR-Lupe-2 4.2 23:10:10 10° N 23:13:39 47° WNW 23:14:31 38° WSW
Cosmos 1943 Rocket 2.2 23:11:54 29° SW 23:14:52 81° WNW 23:20:31 10° NNE
Cosmos 1733 4.3 23:11:47 10° N 23:15:20 37° ENE 23:16:42 27° ESE
ALOS 2 3.9 23:16:05 25° WSW 23:17:08 28° W 23:20:57 10° NW
PSLV R/B 3.8 23:12:46 10° NNE 23:17:11 57° ESE 23:18:26 41° SSE
Cosmos 1766 4.5 23:15:38 10° N 23:19:22 36° ENE 23:21:04 24° ESE
Cosmos 1867 4.3 23:18:57 31° SSE 23:20:26 37° ESE 23:25:27 10° NE
Cosmos 468 4.5 23:16:29 10° NNW 23:21:46 70° WSW 23:23:50 37° S
DNEPR-1 R/B 3.9 23:19:57 29° SW 23:22:51 87° SE 23:27:39 10° NE
Meteor 2-4 Rocket 3.8 23:20:31 32° SSW 23:23:15 74° WNW 23:28:55 10° N
Cosmos 2263 4.5 23:22:38 34° S 23:24:56 57° ESE 23:30:37 10° NE
EO 1 Del DPAF 3.3 23:23:13 10° NNE 23:26:57 63° ESE 23:27:38 51° SSE
Okean 3 3.6 23:28:08 44° SSE 23:29:21 68° E 23:33:35 10° NNE
Okean 1-7 3.1 23:30:15 42° SW 23:31:32 67° WNW 23:35:49 10° N
ATLAS CENTAUR R/B 2.7 23:32:11 22° ESE 23:32:11 22° ESE 23:35:03 10° ENE
Cosmos 372 Rocket 4.1 23:30:36 32° SW 23:32:59 70° WNW 23:38:06 10° NNE
Helios 1A 3.3 23:31:39 32° SE 23:33:22 62° ENE 23:37:30 10° N
Cosmos 1400 Rocket 4.4 23:29:57 10° N 23:33:39 30° ENE 23:36:19 16° ESE
Sich 1 Rocket 3.6 23:29:14 10° N 23:33:52 83° E 23:35:34 39° SSE
SeaSat 1 2.4 23:31:14 10° NNE 23:36:13 84° ESE 23:38:19 36° SSW
NOSS 2-1 (E) 4.2 23:31:55 10° NW 23:36:26 72° NE 23:42:47 10° SE
Cosmos 1125 Rocket 3.8 23:35:51 34° SSE 23:37:51 54° ESE 23:42:56 10° NNE
Cosmos 494 Rocket 4.0 23:32:56 10° NNW 23:38:08 68° WSW 23:40:13 36° S
USA 81 4.4 23:34:13 10° N 23:39:28 59° E 23:42:25 26° SSE
Cosmos 1656 Rocket 3.7 23:39:04 35° S 23:41:19 65° ESE 23:46:49 10° NE
Cosmos 2242 Rocket 4.1 23:40:22 33° SW 23:41:57 50° WNW 23:46:19 10° N
USA 215 3.8 23:42:20 30° SSW 23:44:18 36° SW 23:50:15 10° WNW
Cosmos 1833 4.4 23:39:26 10° NW 23:45:05 57° WSW 23:47:33 32° S
ATLAS 2AS CENTAUR R/B 4.1 23:41:21 10° WNW 23:46:14 20° WSW 23:47:56 18° SW
Cosmos 2227 Rocket 4.1 23:43:05 10° NNW 23:48:00 29° NE 23:52:54 10° E
CZ-2D R/B 3.6 23:45:56 10° NE 23:50:34 28° E 23:53:55 15° SE
Cosmos 2297 Rocket 3.8 23:46:41 10° NNW 23:51:53 35° NE 23:57:05 10° ESE
SJ 16-02 4.4 23:58:26 10° NW 23:58:46 10° NW 23:59:05 10° NNW
